Meteo Giornale » Osservazioni meteo Stati Uniti (USA) » Pensacola
ore: 01:53 - Osservazioni Meteo Pensacola
Lat. 30° 28' N Lon. 87° 11' W Alt. 36 metri s.l.m.
26 °C
Sereno
Temp. 24 Ore
25 °C
31 °C
Nord
0 Km/h
Dew point 26 °C
Umidità 100 %
Visibilità 10 Km
Il sole sorge alle ore 06:25
Il sole tramonta alle ore 19:11
| Data e Ora | Cielo e Fenomeni | T °C | DP °C | Um. % | Pres. hPa | Vis. km | Vento km/h | |
|---|---|---|---|---|---|---|---|---|
| Oggi h: 01:53 | Sereno | 26 | 26 | 100 | 1016 | 10 | N 0 | |
| Oggi h: 00:53 | Sereno | 27 | 25 | 88 | 1017 | 10 | N 5.5 | |
| Ieri h: 23:53 | Sereno | 27 | 24 | 83 | 1017 | 10 | N 0 | |
| Ieri h: 22:53 | Sereno | 27 | 24 | 83 | 1017 | 10 | N 0 | |
| Ieri h: 21:53 | Sereno | 27 | 24 | 83 | 1017 | 10 | N 0 | |
| Ieri h: 20:53 | Sereno | 28 | 24 | 78 | 1017 | 10 | N 0 | |
| Ieri h: 19:53 | Sereno | 28 | 24 | 78 | 1016 | 10 | N 5.5 | |
| Ieri h: 18:53 | Poco Nuvoloso | 29 | 24 | 74 | 1016 | 10 | S 13 | |
| Ieri h: 17:53 | Sereno | 29 | 24 | 74 | 1016 | 10 | S 14.8 | |
| Ieri h: 16:53 | Sereno | 30 | 24 | 70 | 1016 | 10 | S 13 | |
| Ieri h: 15:53 | Poco Nuvoloso | 30 | 24 | 70 | 1016 | 10 | S/SE 11.1 | |
| Ieri h: 14:53 | Poco Nuvoloso | 31 | 24 | 66 | 1017 | 10 | SE 18.5 | |
| Ieri h: 13:53 | Nuvoloso | 31 | 24 | 66 | 1017 | 10 | S/SE 18.5 | |
| Ieri h: 12:53 | Sereno | 31 | 24 | 66 | 1018 | 10 | S/SE 16.7 | |
| Ieri h: 11:53 | Sereno | 31 | 24 | 66 | 1018 | 10 | S 11.1 | |
| Ieri h: 10:53 | Sereno | 30 | 24 | 70 | 1018 | 10 | E/SE 11.1 | |
| Ieri h: 09:53 | Sereno | 29 | 24 | 74 | 1018 | 10 | E 9.3 | |
| Ieri h: 08:53 | Sereno | 28 | 24 | 78 | 1018 | 10 | E/NE 13 | |
| Ieri h: 07:53 | Sereno | 26 | 23 | 83 | 1018 | 10 | N 9.3 | |
| Ieri h: 06:53 | Sereno | 25 | 23 | 88 | 1017 | 10 | E/NE 9.3 | |
| Ieri h: 05:53 | Sereno | 25 | 23 | 88 | 1016 | 10 | E/NE 11.1 | |
| Ieri h: 04:53 | Sereno | 26 | 23 | 83 | 1016 | 10 | E 13 | |
| Ieri h: 03:53 | Sereno | 26 | 23 | 83 | 1016 | 10 | E/NE 11.1 | |
| Ieri h: 02:53 | Sereno | 26 | 24 | 88 | 1016 | 10 | E/NE 9.3 | |



